Location: Saint-Restitut
(44.3351°N, 4.7915°E)
Time: 08:32:54
(UTC+00:00)

Cosmos 1726 Rocket - Pass Details

Date: 03 February 2023
Orbit: 602 x 627 km, 82.5° (Epoch: 26 March)

Event Time Altitude Azimuth Distance (km) Brightness Sun altitude
Rises 17:24:07 0° 2° (N) 2,865 6.8 -6.1°
Reaches altitude 10° 17:26:38 10° 15° (NNE) 1,957 5.8 -6.6°
Maximum altitude 17:30:17 26° 73° (ENE) 1,194 4.5 -7.2°
Drops below altitude 10° 17:33:55 10° 131° (SE) 1,947 5.8 -7.8°
Sets 17:36:25 0° 144° (SE) 2,847 6.7 -8.2°
